Regional Weather Roundup
Issued by NWS

Home | Current Version | Previous Version | Text Only | Print | Product List | Glossary On
Versions: 1 2 3 4 5 6 7 8 9 10 11 12 13 14 15 16 17 18 19 20 21 22 23 24 25 26 27 28 29 30 31 32 33 34 35 36 37 38 39 40 41 42 43 44 45 46 47 48 49 50
000
ASCA44 KEWX 280320
RWRMX

LATIN AMERICA AND CARIBBEAN REGIONAL WEATHER ROUNDUP
NATIONAL WEATHER SERVICE AUSTIN/SAN ANTONIO TX
1000 PM CDT TUE SEP 27 2016

NOTE: "FAIR" INDICATED FEW OR NO CLOUDS BELOW 12,000 FEET WITH NO
SIGNIFICANT WEATHER AND/OR OBSTRUCTIONS TO VISIBILITY.

BAJA CALIFORNIA

CITY           SKY/WX    TMP DP  RH WIND       PRES   REMARKS
LA PAZ         PTCLDY    82  64  54 S9        29.82R
MEXICALI       PTCLDY    88  48  25 E7        29.83
S.J. DEL CABO  PTCLDY    81  72  74 NE3       29.83R
TIJUANA        PTCLDY    79  46  31 CALM      29.99R

NORTHWESTERN MEXICO

CITY           SKY/WX    TMP DP  RH WIND       PRES   REMARKS
CULIACAN       PTCLDY    82  73  74 CALM      29.78R
DURANGO        MOCLDY    64  61  88 N3        30.25R
GUAYMAS          N/A    N/A N/A N/A MISG        N/A
HERMOSILLO     CLOUDY    84  66  54 W5        29.85R
CD. JUAREZ     PTCLDY    72  52  49 CALM      30.10R
LOS MOCHIS     PTCLDY    82  68  61 NW8       29.79R

NORTHEASTERN MEXICO

CITY           SKY/WX    TMP DP  RH WIND       PRES   REMARKS
CHIHUAHUA      MOCLDY    64  59  82 CALM      30.21R
MONCLOVA         N/A    N/A N/A N/A MISG        N/A
MONTERREY      CLOUDY    70  63  78 NW9       30.08R
REYNOSA          N/A    N/A N/A N/A MISG        N/A
SALTILLO         N/A    N/A N/A N/A MISG        N/A
TORREON        MOCLDY    70  64  83 NW5       30.14R
CD. VICTORIA     N/A    N/A N/A N/A MISG        N/A

WESTERN MEXICO

CITY           SKY/WX    TMP DP  RH WIND       PRES   REMARKS
AGUASCALIENTES CLEAR     64  54  68 NE10      30.21R
COLIMA           N/A    N/A N/A N/A MISG        N/A
DEL BAJIO      PTCLDY    68  55  64 NE5       30.26R
GUADALAJARA    MOCLDY    66  61  82 CALM      30.11R
MAZATLAN       MOCLDY    82  77  83 N2        29.80R HX  91
P. VALLARTA    CLOUDY    82  79  89 E3        29.82R HX  93
URUAPAN          N/A    N/A N/A N/A MISG        N/A
ZACATECAS      MOCLDY    63  54  72 NE8       30.28R

CENTRAL MEXICO

CITY           SKY/WX    TMP DP  RH WIND       PRES   REMARKS
CUERNAVACA       N/A    N/A N/A N/A MISG        N/A
MEXICO CITY    MOCLDY    61  54  77 N7        30.31R
MORELIA        MOCLDY    63  61  94 CALM      30.19R
POZA RICA        N/A    N/A N/A N/A MISG        N/A
PUEBLA         LGT RAIN  59  55  88 W2        30.31R
QUERETARO      CLOUDY    61  59  94 SE7       30.29R
S. LUIS POTOSI MOCLDY    64  54  68 E5        30.24R
TAMPICO        CLOUDY    75  70  83 N20       29.94R
TOLUCA         MOCLDY    57  50  77 NE3       30.37R

SOUTHERN MEXICO

CITY           SKY/WX    TMP DP  RH WIND       PRES   REMARKS
ACAPULCO       MOCLDY    82  77  83 NE6       29.85R HX  91
B. DE HUATULCO   N/A    N/A N/A N/A MISG        N/A
P. ESCONDIDO     N/A    N/A N/A N/A MISG        N/A
VERACRUZ       PTCLDY    77  75  94 NE6       29.90R
ZIHUATANEJO      N/A    N/A N/A N/A MISG        N/A

YUCATAN PENINSULA

CITY           SKY/WX    TMP DP  RH WIND       PRES   REMARKS
CAMPECHE         N/A    N/A N/A N/A MISG        N/A
CANCUN         CLEAR     79  77  94 CALM      29.97R
CHETUMAL         N/A    N/A N/A N/A MISG        N/A
CD. DEL CARMEN   N/A    N/A N/A N/A MISG        N/A
COZUMEL        PTCLDY    79  75  89 CALM      29.95R
MERIDA         CLEAR     81  72  74 NE5       29.94R
MINATITLAN       N/A    N/A N/A N/A MISG        N/A
TAPACHULA      CLOUDY    75  73  94 N9        29.88R
TUX. GUTIERREZ TSTM      73  72  94 SE6       29.98R
VILLAHERMOSA   MOCLDY    79  75  89 NE5       29.93R

CENTRAL AMERICA

CITY           SKY/WX    TMP DP  RH WIND       PRES   REMARKS

CARIBBEAN

CITY           SKY/WX    TMP DP  RH WIND       PRES   REMARKS
ARUBA          PTCLDY    84  79  84 E18       29.86  HX  96
KINGSTON       PTCLDY    86  75  70 E3        29.94S HX  95
NASSAU         PTCLDY    81  73  78 CALM      30.01F
SAN JUAN       PTCLDY    82  79  89 E5        30.00R HX  93
SANTO DOMINGO  PTCLDY    81  77  89 NE5       29.97R
ST. CROIX      PTCLDY    81  77  89 NE8       29.99R
ST. MAARTEN    PTCLDY    84  77  79 E12       29.97S HX  94
ST. THOMAS     PTCLDY    84  79  84 E14G20    29.99R HX  96

$$





USA.gov is the U.S. government's official web portal to all federal, state and local government web resources and services.